[[{"header":{"parameterUnit":"m.s-1","parameterCategory":1,"la1":30.2991,"la2":30.254,"lo1":-89.0895,"lo2":-89.0444,"dy":0.0017,"dx":0.0017,"nx":28,"ny":28,"refTime":"2025-12-11T03:00:00:Z","depth":0,"parameterNumber":2,"parameterNumberName":"U-component_of_WINDS"},"data":[0,0,0,0,0,0,0,0,0,0,0,0,0,0,0,0,0,0,0,0,0,0,0,0,0,0,0,0,0,0,0,0,0,0,0,0,0,0,0,0,0,0,0,0,0,0,0,0,0,0,0,0,0,0,0,0,0,0,-2.5705,-2.5705,0,-2.564,-2.5639,-2.5638,-2.5527,-2.5525,-2.5523,-2.5521,-2.5456,-2.5457,-2.5457,0,0,0,0,0,0,0,0,0,0,0,0,0,-2.5737,-2.5737,-2.5706,-2.5705,-2.5704,-2.564,-2.5639,-2.5638,-2.5527,-2.5525,-2.5522,-2.552,-2.5456,-2.5457,-2.5457,0,0,0,0,0,0,0,0,0,0,0,0,0,-2.5703,-2.5737,-2.5706,-2.5641,-2.5634,-2.564,-2.5639,-2.5638,-2.5528,-2.5525,-2.5521,-2.5519,-2.5456,-2.5456,-2.5457,-2.5522,0,0,-2.5458,-2.5458,0,0,0,0,0,0,0,0,-2.5705,-2.5702,-2.5651,-2.5645,-2.5638,-2.5588,-2.5627,-2.5599,-2.5529,-2.5568,-2.5521,-2.5517,-2.5503,-2.5499,-2.5494,-2.5519,-2.5516,-2.5458,-2.5458,-2.5458,-2.5458,0,0,0,0,0,0,0,-2.5708,-2.5704,-2.568,-2.565,-2.5642,-2.5616,-2.5607,-2.5621,-2.5554,-2.5565,-2.5556,-2.555,-2.5499,-2.5494,-2.5492,-2.5515,-2.5458,-2.5458,-2.5458,-2.5459,-2.5591,-2.5594,0,0,0,0,0,0,-2.5719,-2.5707,-2.5682,-2.5678,-2.5664,-2.5618,-2.5608,-2.5607,-2.5554,-2.5542,-2.5553,-2.5545,-2.5495,-2.5491,-2.5489,-2.5562,-2.5458,-2.5459,-2.5459,-2.5588,-2.5592,-2.5595,0,0,0,0,0,0,-2.572,-2.5718,-2.5684,-2.569,-2.5684,-2.562,-2.562,-2.5608,-2.5603,-2.5545,-2.5532,-2.556,-2.5492,-2.5488,-2.5514,-2.5559,-2.5459,-2.5459,-2.5584,-2.5589,-2.5594,-2.571,0,0,0,0,0,0,-2.5722,-2.5719,-2.5742,-2.5691,-2.5684,-2.5711,-2.5623,-2.5609,-2.5603,-2.5593,-2.5548,-2.5538,-2.5489,-2.5515,-2.5515,-2.5557,-2.5459,-2.558,-2.5586,-2.5592,-2.5702,-2.5718,-2.5732,0,0,0,0,0,-2.5723,-2.5778,-2.5744,-2.5742,-2.5711,-2.5713,-2.5709,-2.5652,-2.5607,-2.5631,-2.5594,-2.5539,-2.5553,-2.5518,-2.5518,-2.5561,-2.5577,-2.5584,-2.5592,-2.5695,-2.5715,-2.5732,0,0,0,0,0,0,-2.5837,-2.577,-2.5732,-2.5771,-2.5749,-2.5694,-2.5722,-2.5674,-2.5665,-2.5655,-2.5585,-2.5576,-2.5612,-2.5588,-2.555,-2.5621,-2.5557,-2.5564,-2.5635,-2.5654,-2.5669,-2.5674,-2.546,0,0,0,0,0,-2.5866,-2.5872,-2.5814,-2.5855,-2.5845,-2.5786,-2.5785,-2.5742,-2.5716,-2.5707,-2.5671,-2.5649,-2.5648,-2.5649,-2.5646,-2.5697,-2.5687,-2.5727,-2.5742,-2.5755,-2.5763,-2.579,-2.5807,-2.562,-2.562,-2.562,0,0,-2.5928,-2.5892,-2.59,-2.5877,-2.5854,-2.5863,-2.5779,-2.5792,-2.5798,-2.5709,-2.5731,-2.5705,-2.5675,-2.5715,-2.5731,-2.5697,-2.5812,-2.5764,-2.5775,-2.5776,-2.5799,-2.5817,-2.5833,-2.5625,-2.5624,-2.5623,0,0,-2.6044,-2.6017,-2.6049,-2.6028,-2.5994,-2.5955,-2.5963,-2.5915,-2.5894,-2.5915,-2.5849,-2.5856,-2.5856,-2.5838,-2.5829,-2.594,-2.589,-2.5941,-2.6021,-2.6048,-2.6063,-2.6076,-2.6117,-2.6132,-2.5949,-2.5949,-2.5949,0,-2.6125,-2.6135,-2.6071,-2.6088,-2.6081,-2.5999,-2.6032,-2.6015,-2.5983,-2.598,-2.5942,-2.5941,-2.5915,-2.595,-2.5978,-2.5972,-2.598,-2.5946,-2.6065,-2.6078,-2.6089,-2.6127,-2.6143,-2.5955,-2.5955,-2.5954,-2.5953,0,-2.6237,-2.6245,-2.6274,-2.6245,-2.624,-2.6265,-2.6206,-2.6209,-2.6168,-2.6133,-2.6156,-2.6122,-2.6111,-2.6116,-2.6075,-2.6146,-2.6126,-2.6078,-2.6012,-2.6114,-2.6149,-2.6163,-2.5965,-2.5962,-2.596,-2.5959,0,0,-2.6424,-2.6358,-2.6371,-2.6357,-2.6314,-2.632,-2.6341,-2.6329,-2.6334,-2.6315,-2.6332,-2.6335,-2.629,-2.628,-2.6237,-2.6261,-2.6352,-2.6209,-2.6208,-2.6239,-2.643,-2.6468,-2.6486,-2.6318,-2.6321,-2.6323,-2.6433,0,-2.6533,-2.6565,-2.6509,-2.6555,-2.6562,-2.6485,-2.6504,-2.6481,-2.6449,-2.6452,-2.6416,-2.6419,-2.6359,-2.6353,-2.6373,-2.6337,-2.639,-2.6328,-2.6336,-2.6337,-2.6347,-2.6503,-2.6543,-2.6648,-2.6446,-2.6448,-2.645,0,-2.6664,-2.6651,-2.6698,-2.6653,-2.6654,-2.6673,-2.6658,-2.666,-2.6633,-2.6608,-2.6597,-2.6546,-2.6565,-2.6501,-2.6527,-2.6486,-2.6486,-2.6469,-2.6472,-2.6471,-2.6401,-2.6509,-2.668,-2.6697,-2.647,-2.6469,-2.6467,0,-2.6798,-2.6792,-2.6819,-2.6809,-2.6758,-2.6773,-2.6752,-2.6721,-2.6718,-2.6705,-2.6703,-2.6693,-2.6688,-2.6682,-2.663,-2.6587,-2.6664,-2.6594,-2.6645,-2.6647,-2.6666,-2.6666,-2.6841,-2.6663,-2.6663,-2.6663,-2.6662,0,-2.6926,-2.6959,-2.6879,-2.6896,-2.693,-2.6865,-2.6901,-2.6873,-2.6847,-2.6858,-2.679,-2.6803,-2.6732,-2.6738,-2.6697,-2.6726,-2.6724,-2.6706,-2.6695,-2.6713,-2.6716,-2.6713,-2.6705,-2.6667,-2.6666,-2.6665,-2.6664,0,-2.7082,-2.703,-2.7055,-2.7004,-2.6992,-2.702,-2.6976,-2.6991,-2.6954,-2.6969,-2.6969,-2.6912,-2.6915,-2.6862,-2.6854,-2.6827,-2.6875,-2.685,-2.6885,-2.6877,-2.6932,-2.6928,-2.7113,-2.7135,-2.6942,-2.6944,-2.6946,0,-2.7168,-2.7191,-2.7143,-2.7145,-2.7128,-2.7132,-2.7128,-2.7066,-2.7065,-2.7036,-2.7054,-2.7051,-2.7045,-2.7053,-2.7012,-2.7006,-2.6982,-2.7047,-2.6981,-2.6998,-2.6985,-2.6985,-2.6988,-2.7062,-2.7064,-2.7066,-2.7068,0,-2.7328,-2.73,-2.7297,-2.7286,-2.7283,-2.7271,-2.7255,-2.7261,-2.7192,-2.7195,-2.7196,-2.7192,-2.7184,-2.7183,-2.7169,-2.7148,-2.7098,-2.7089,-2.7101,-2.712,-2.7139,-2.7131,-2.6925,-2.7085,-2.7083,-2.7082,-2.7081,-2.7081,-2.7452,-2.7469,-2.7438,-2.7437,-2.7418,-2.7405,-2.7416,-2.7381,-2.7381,-2.7369,-2.7332,-2.734,-2.7313,-2.7289,-2.7274,-2.728,-2.7248,-2.7265,-2.7269,-2.7275,-2.7286,-2.7137,-2.7277,-2.7276,-2.7276,-2.7275,-2.7275,0,-2.7609,-2.7585,-2.7585,-2.7564,-2.7564,-2.7514,-2.7494,-2.7498,-2.7505,-2.7484,-2.7479,-2.7482,-2.748,-2.7439,-2.7433,-2.7446,-2.7423,-2.7447,-2.7446,-2.7443,-2.7314,-2.7305,-2.7466,-2.7466,-2.7466,-2.7466,-2.7466,-2.7466,-2.7691,-2.7718,-2.7688,-2.7705,-2.7681,-2.7688,-2.7681,-2.7669,-2.7651,-2.7657,-2.7655,-2.7627,-2.7598,-2.759,-2.7586,-2.7574,-2.7576,-2.7608,-2.7589,-2.747,-2.7451,-2.7434,-2.7425,-2.7609,-2.7609,-2.7717,-2.7718,-2.7719]},{"header":{"parameterUnit":"m.s-1","parameterCategory":1,"la1":30.2991,"la2":30.254,"lo1":-89.0895,"lo2":-89.0444,"dy":0.0017,"dx":0.0017,"nx":28,"ny":28,"refTime":"2025-12-11T03:00:00:Z","depth":0,"parameterNumber":3,"parameterNumberName":"V-component_of_WINDS"},"data":[0,0,0,0,0,0,0,0,0,0,0,0,0,0,0,0,0,0,0,0,0,0,0,0,0,0,0,0,0,0,0,0,0,0,0,0,0,0,0,0,0,0,0,0,0,0,0,0,0,0,0,0,0,0,0,0,0,0,-1.1918,-1.1919,0,-1.1981,-1.1982,-1.1982,-1.1972,-1.1971,-1.197,-1.1969,-1.2035,-1.2038,-1.204,0,0,0,0,0,0,0,0,0,0,0,0,0,-1.1789,-1.1791,-1.1918,-1.1919,-1.1919,-1.1981,-1.1982,-1.1983,-1.1972,-1.1971,-1.1969,-1.1968,-1.2034,-1.2037,-1.2041,0,0,0,0,0,0,0,0,0,0,0,0,0,-1.1848,-1.1792,-1.1918,-1.1921,-1.1922,-1.1981,-1.1982,-1.1983,-1.1972,-1.1971,-1.1969,-1.1967,-1.2033,-1.2037,-1.2041,-1.21,0,0,-1.2054,-1.2056,0,0,0,0,0,0,0,0,-1.1845,-1.1853,-1.192,-1.1921,-1.1922,-1.1967,-1.1961,-1.2022,-1.1973,-1.1953,-1.1969,-1.1967,-1.2014,-1.2019,-1.2035,-1.2103,-1.2106,-1.2054,-1.2057,-1.2059,-1.206,0,0,0,0,0,0,0,-1.184,-1.185,-1.1943,-1.1921,-1.1923,-1.192,-1.1927,-1.1972,-1.1992,-1.1955,-1.1954,-1.1962,-1.2014,-1.2031,-1.2036,-1.2107,-1.2054,-1.2058,-1.206,-1.2062,-1.2227,-1.2229,0,0,0,0,0,0,-1.1835,-1.1846,-1.1941,-1.1945,-1.1879,-1.1924,-1.1931,-1.1954,-1.1992,-1.1996,-1.1963,-1.1961,-1.2024,-1.2031,-1.2039,-1.2111,-1.2059,-1.2062,-1.2065,-1.2225,-1.2228,-1.223,0,0,0,0,0,0,-1.1832,-1.1844,-1.1938,-1.1895,-1.1907,-1.1928,-1.1954,-1.1956,-1.1973,-1.1998,-1.2001,-1.1977,-1.2023,-1.2033,-1.2085,-1.2113,-1.2064,-1.2068,-1.2223,-1.2226,-1.2229,-1.2255,0,0,0,0,0,0,-1.1829,-1.1843,-1.1865,-1.1896,-1.191,-1.1983,-1.1956,-1.1959,-1.198,-1.1978,-1.2011,-1.2015,-1.2023,-1.2079,-1.2089,-1.2118,-1.2071,-1.2221,-1.2224,-1.2228,-1.2252,-1.2259,-1.2264,0,0,0,0,0,-1.1824,-1.1871,-1.1866,-1.1878,-1.1938,-1.1985,-1.1993,-1.2,-1.1983,-1.2006,-1.2021,-1.2014,-1.2108,-1.2084,-1.2096,-1.2126,-1.2219,-1.2223,-1.2227,-1.2249,-1.2257,-1.2264,0,0,0,0,0,0,-1.1843,-1.1875,-1.187,-1.1928,-1.1954,-1.1983,-1.2012,-1.2008,-1.204,-1.2037,-1.2045,-1.2052,-1.2105,-1.2121,-1.2094,-1.2185,-1.2161,-1.2168,-1.2174,-1.2182,-1.2188,-1.2184,-1.2075,0,0,0,0,0,-1.1854,-1.1889,-1.1914,-1.1963,-1.1976,-1.1992,-1.2012,-1.2016,-1.2043,-1.2054,-1.2073,-1.2101,-1.2136,-1.2159,-1.2193,-1.2253,-1.2261,-1.228,-1.2286,-1.2291,-1.2298,-1.2331,-1.234,-1.2243,-1.2243,-1.2243,0,0,-1.1877,-1.1898,-1.192,-1.1967,-1.1988,-1.2024,-1.2001,-1.2041,-1.2068,-1.206,-1.2111,-1.2126,-1.2156,-1.2213,-1.2239,-1.2228,-1.2326,-1.2297,-1.23,-1.2304,-1.2337,-1.2346,-1.2354,-1.2246,-1.2246,-1.2245,0,0,-1.1938,-1.1957,-1.2,-1.202,-1.2051,-1.2061,-1.2071,-1.2101,-1.2111,-1.2161,-1.2156,-1.2188,-1.2249,-1.2272,-1.2291,-1.2359,-1.2354,-1.2369,-1.2403,-1.2435,-1.2443,-1.245,-1.2475,-1.2484,-1.2375,-1.2375,-1.2375,0,-1.1963,-1.2017,-1.2022,-1.2063,-1.2084,-1.2077,-1.2121,-1.214,-1.2181,-1.2196,-1.2182,-1.2258,-1.2278,-1.234,-1.2357,-1.2372,-1.2385,-1.2367,-1.2441,-1.2448,-1.2455,-1.2479,-1.2489,-1.2377,-1.2377,-1.2377,-1.2377,0,-1.2047,-1.2085,-1.2115,-1.2154,-1.2179,-1.222,-1.2232,-1.2256,-1.2257,-1.2268,-1.232,-1.2344,-1.2382,-1.2397,-1.2398,-1.2459,-1.2451,-1.2439,-1.2415,-1.2466,-1.2489,-1.2498,-1.238,-1.2379,-1.2379,-1.2378,0,0,-1.2123,-1.2164,-1.2175,-1.2193,-1.2226,-1.2255,-1.2296,-1.2334,-1.2355,-1.2382,-1.2418,-1.2469,-1.2458,-1.2479,-1.2483,-1.2511,-1.2565,-1.2496,-1.2497,-1.2509,-1.2635,-1.2645,-1.2656,-1.2561,-1.2563,-1.2564,-1.2633,0,-1.2189,-1.2261,-1.2267,-1.2333,-1.2368,-1.2361,-1.2397,-1.2422,-1.2433,-1.2465,-1.2478,-1.2514,-1.2496,-1.2509,-1.2537,-1.2553,-1.2591,-1.2547,-1.2595,-1.2597,-1.259,-1.2668,-1.2679,-1.2743,-1.2642,-1.2643,-1.2644,0,-1.2275,-1.2305,-1.2374,-1.2402,-1.2417,-1.2449,-1.2484,-1.2514,-1.2541,-1.2548,-1.2571,-1.2571,-1.2614,-1.2586,-1.2646,-1.2616,-1.2636,-1.2646,-1.2649,-1.2655,-1.2625,-1.2678,-1.2763,-1.2773,-1.2659,-1.2657,-1.2656,0,-1.2325,-1.2383,-1.2432,-1.2447,-1.248,-1.2503,-1.2518,-1.2544,-1.2566,-1.2596,-1.261,-1.2645,-1.2665,-1.2692,-1.2701,-1.268,-1.276,-1.2734,-1.2768,-1.2768,-1.2787,-1.2786,-1.2878,-1.2796,-1.2796,-1.2796,-1.2796,0,-1.2399,-1.2442,-1.2455,-1.2486,-1.2534,-1.2539,-1.2586,-1.26,-1.2623,-1.2656,-1.2651,-1.2683,-1.2692,-1.2725,-1.2732,-1.2781,-1.2789,-1.2796,-1.2798,-1.2798,-1.2797,-1.2812,-1.2809,-1.2799,-1.2798,-1.2798,-1.2797,0,-1.2464,-1.2475,-1.2528,-1.2555,-1.2562,-1.2597,-1.262,-1.2649,-1.2659,-1.2702,-1.2712,-1.2728,-1.2767,-1.2778,-1.2824,-1.2829,-1.2887,-1.2884,-1.2878,-1.2878,-1.2913,-1.291,-1.3019,-1.3035,-1.2941,-1.2942,-1.2943,0,-1.2511,-1.2544,-1.2574,-1.2596,-1.2612,-1.2647,-1.2669,-1.2675,-1.2699,-1.2732,-1.2758,-1.2795,-1.2826,-1.2888,-1.2905,-1.294,-1.2939,-1.2975,-1.2945,-1.2943,-1.2942,-1.294,-1.2944,-1.2981,-1.2982,-1.2983,-1.2984,0,-1.2594,-1.2598,-1.263,-1.2664,-1.269,-1.2717,-1.2743,-1.2761,-1.2771,-1.2798,-1.2837,-1.2861,-1.2908,-1.2946,-1.2981,-1.2997,-1.2993,-1.2993,-1.3003,-1.3004,-1.3,-1.3004,-1.2895,-1.2991,-1.299,-1.299,-1.2989,-1.2989,-1.2653,-1.2682,-1.2708,-1.2744,-1.2764,-1.2788,-1.2817,-1.2831,-1.2863,-1.2902,-1.2903,-1.2946,-1.2972,-1.302,-1.3037,-1.3071,-1.3061,-1.3075,-1.3079,-1.3083,-1.3086,-1.2993,-1.3077,-1.3077,-1.3077,-1.3077,-1.3077,0,-1.2737,-1.2753,-1.2786,-1.2822,-1.285,-1.2842,-1.287,-1.2895,-1.2932,-1.2957,-1.2987,-1.3032,-1.3069,-1.3087,-1.3124,-1.3147,-1.3146,-1.3157,-1.3156,-1.316,-1.3093,-1.3081,-1.3157,-1.3157,-1.3157,-1.3157,-1.3157,-1.3157,-1.2784,-1.2833,-1.284,-1.2899,-1.2914,-1.2956,-1.2973,-1.2995,-1.3015,-1.3065,-1.3095,-1.3107,-1.3129,-1.3167,-1.3201,-1.3205,-1.322,-1.3232,-1.3236,-1.3173,-1.3165,-1.3157,-1.3146,-1.3235,-1.3235,-1.3301,-1.3301,-1.3302]}]]